SKYNET 4C

Last updated on Wed Oct 29 2025 00:02:45 GMT+0000 (Coordinated Universal Time)

1 20776U 90079A 25300.80600443 .00000137 00000+0 00000+0 0 9991 2 20776 13.4169 351.3867 0004019 214.4846 154.0841 1.00270932128563
UTC large
Height (km)
Speed (km/s)
/
Latitude / Longitude
Inclination (degrees)
Orbital Period (minutes)
Azimuth
Elevation
Range (km)
Doppler Factor

Next 0 passes for location: London (51.5072 / 0.1276)

Sorry there are no passes over London.